• In Hungary
  • List of Countries
  • For 7 days
  • Water Temperature
  • Satellite Maps
  • Weather Map
  • News
  • Weather Widgets
  • user-avatar
    Login

    Hourly Weather San Juan Cotzal

    Today, 24 June, Sunday

    Time Temperature Precipitation Wind Pressure Humidity
    00:00 +22°C° 3.8 mm 0 mps 715 mmHg 97%
    01:00 +22°C° 2.1 mm 0 mps 715 mmHg 98%
    02:00 +22°C° 2.1 mm 0 mps 715 mmHg 98%
    03:00 +22°C° 2.1 mm 0 mps 715 mmHg 98%
    04:00 +21°C° 0.4 mm 0 mps 715 mmHg 98%
    05:00 +21°C° 0.4 mm 0 mps 715 mmHg 98%
    06:00 +21°C° 0.4 mm 0 mps 715 mmHg 98%
    07:00 +23°C° 0.1 mm 0 mps 715 mmHg 91%
    08:00 +25°C° 0.1 mm 0 mps 715 mmHg 84%
    09:00 +27°C° 0.1 mm 0 mps 715 mmHg 76%
    10:00 +30°C° 0.1 mm 1 mps 715 mmHg 70%
    11:00 +31°C° 0.1 mm 1 mps 715 mmHg 64%
    12:00 +33°C° 0.1 mm 1 mps 715 mmHg 58%
    13:00 +33°C° 0.6 mm 1 mps 714 mmHg 59%
    14:00 +33°C° 0.6 mm 1 mps 714 mmHg 60%
    15:00 +33°C° 0.6 mm 1 mps 713 mmHg 61%
    16:00 +31°C° 0.8 mm 1 mps 713 mmHg 67%
    17:00 +30°C° 0.8 mm 1 mps 713 mmHg 73%
    18:00 +29°C° 0.8 mm 1 mps 713 mmHg 79%
    19:00 +28°C° 1.5 mm 1 mps 714 mmHg 83%
    20:00 +26°C° 1.5 mm 1 mps 714 mmHg 87%
    21:00 +25°C° 1.5 mm 1 mps 715 mmHg 92%
    22:00 +25°C° 0.6 mm 1 mps 715 mmHg 92%
    23:00 +23°C° 0.6 mm 0 mps 715 mmHg 92%

    Tomorrow, 25 June, Monday

    Time Temperature Precipitation Wind Pressure Humidity
    00:00 +22°C° 0.6 mm 0 mps 715 mmHg 93%
    01:00 +22°C° 0.1 mm 0 mps 715 mmHg 94%
    02:00 +22°C° 0.1 mm 0 mps 715 mmHg 94%
    03:00 +22°C° 0.1 mm 0 mps 714 mmHg 95%
    04:00 +21°C° 0.1 mm 0 mps 714 mmHg 95%
    05:00 +21°C° 0.1 mm 0 mps 714 mmHg 95%
    06:00 +21°C° 0.1 mm 0 mps 714 mmHg 96%
    07:00 +23°C° 0 mm 0 mps 715 mmHg 86%
    08:00 +27°C° 0 mm 1 mps 715 mmHg 77%
    09:00 +29°C° 0 mm 1 mps 715 mmHg 68%
    10:00 +31°C° 0.3 mm 1 mps 715 mmHg 64%
    11:00 +32°C° 0.3 mm 1 mps 715 mmHg 60%
    12:00 +33°C° 0.3 mm 1 mps 715 mmHg 56%
    13:00 +33°C° 1.1 mm 1 mps 714 mmHg 57%
    14:00 +33°C° 1.1 mm 1 mps 714 mmHg 59%
    15:00 +33°C° 1.1 mm 1 mps 713 mmHg 61%
    16:00 +31°C° 2.2 mm 1 mps 713 mmHg 68%
    17:00 +30°C° 2.2 mm 1 mps 713 mmHg 75%
    18:00 +28°C° 2.2 mm 1 mps 713 mmHg 82%
    19:00 +27°C° 3.5 mm 1 mps 714 mmHg 86%
    20:00 +26°C° 3.5 mm 1 mps 715 mmHg 91%
    21:00 +24°C° 3.5 mm 1 mps 715 mmHg 96%
    22:00 +24°C° 0.8 mm 1 mps 715 mmHg 96%
    23:00 +24°C° 0.8 mm 1 mps 715 mmHg 96%

    Day after tomorrow, 26 June, Tuesday

    Time Temperature Precipitation Wind Pressure Humidity
    00:00 +24°C° 0.8 mm 1 mps 716 mmHg 96%
    01:00 +21°C° 0.1 mm 0 mps 715 mmHg 96%
    02:00 +21°C° 0.1 mm 0 mps 715 mmHg 96%
    03:00 +21°C° 0.1 mm 0 mps 714 mmHg 96%
    04:00 +21°C° 0 mm 0 mps 714 mmHg 96%
    05:00 +20°C° 0 mm 0 mps 714 mmHg 96%
    06:00 +20°C° 0 mm 0 mps 714 mmHg 96%
    07:00 +23°C° 0 mm 0 mps 715 mmHg 86%
    08:00 +27°C° 0 mm 1 mps 715 mmHg 76%
    09:00 +29°C° 0 mm 1 mps 716 mmHg 67%
    10:00 +30°C° 0.2 mm 1 mps 716 mmHg 62%
    11:00 +32°C° 0.2 mm 1 mps 715 mmHg 58%
    12:00 +34°C° 0.2 mm 2 mps 715 mmHg 53%
    13:00 +34°C° 0.9 mm 2 mps 714 mmHg 56%
    14:00 +34°C° 0.9 mm 2 mps 714 mmHg 60%
    15:00 +32°C° 0.9 mm 2 mps 713 mmHg 63%
    16:00 +31°C° 2 mm 2 mps 713 mmHg 70%
    17:00 +29°C° 2 mm 1 mps 713 mmHg 77%
    18:00 +28°C° 2 mm 1 mps 713 mmHg 84%
    19:00 +27°C° 1.7 mm 1 mps 714 mmHg 88%
    20:00 +25°C° 1.7 mm 1 mps 715 mmHg 91%
    21:00 +24°C° 1.7 mm 1 mps 715 mmHg 95%
    22:00 +24°C° 0.3 mm 1 mps 716 mmHg 95%
    23:00 +24°C° 0.3 mm 1 mps 716 mmHg 95%

    27 June, Wednesday

    Time Temperature Precipitation Wind Pressure Humidity
    00:00 +23°C° 0.3 mm 1 mps 716 mmHg 95%
    01:00 +23°C° 0 mm 1 mps 716 mmHg 95%
    02:00 +23°C° 0 mm 1 mps 715 mmHg 95%
    03:00 +21°C° 0 mm 0 mps 715 mmHg 94%
    04:00 +20°C° 0 mm 0 mps 715 mmHg 94%
    05:00 +20°C° 0 mm 0 mps 715 mmHg 93%
    06:00 +20°C° 0 mm 0 mps 715 mmHg 93%
    07:00 +24°C° 0 mm 1 mps 715 mmHg 86%
    08:00 +26°C° 0 mm 1 mps 716 mmHg 78%
    09:00 +28°C° 0 mm 1 mps 716 mmHg 71%
    10:00 +30°C° 0.1 mm 1 mps 716 mmHg 66%
    11:00 +31°C° 0.1 mm 1 mps 716 mmHg 60%
    12:00 +32°C° 0.1 mm 1 mps 715 mmHg 55%
    13:00 +32°C° 0.9 mm 2 mps 715 mmHg 60%
    14:00 +31°C° 0.9 mm 2 mps 714 mmHg 64%
    15:00 +31°C° 0.9 mm 2 mps 714 mmHg 69%
    16:00 +29°C° 2.5 mm 2 mps 714 mmHg 78%
    17:00 +27°C° 2.5 mm 1 mps 714 mmHg 87%
    18:00 +25°C° 2.5 mm 1 mps 714 mmHg 96%
    19:00 +25°C° 0.8 mm 1 mps 715 mmHg 96%
    20:00 +24°C° 0.8 mm 1 mps 715 mmHg 96%
    21:00 +23°C° 0.8 mm 1 mps 716 mmHg 96%
    22:00 +23°C° 0.5 mm 1 mps 716 mmHg 95%
    23:00 +22°C° 0.5 mm 1 mps 716 mmHg 94%

    28 June, Thursday

    Time Temperature Precipitation Wind Pressure Humidity
    00:00 +22°C° 0.5 mm 1 mps 716 mmHg 94%
    01:00 +22°C° 0.6 mm 1 mps 716 mmHg 94%
    02:00 +22°C° 0.6 mm 1 mps 715 mmHg 94%
    03:00 +22°C° 0.6 mm 1 mps 715 mmHg 94%
    04:00 +22°C° 0.6 mm 1 mps 715 mmHg 95%
    05:00 +22°C° 0.6 mm 1 mps 715 mmHg 95%
    06:00 +22°C° 0.6 mm 1 mps 715 mmHg 95%
    07:00 +23°C° 0.6 mm 1 mps 716 mmHg 90%
    08:00 +24°C° 0.6 mm 1 mps 716 mmHg 86%
    09:00 +25°C° 0.6 mm 1 mps 716 mmHg 82%
    10:00 +26°C° 0.9 mm 1 mps 716 mmHg 79%
    11:00 +27°C° 0.9 mm 1 mps 716 mmHg 77%
    12:00 +28°C° 0.9 mm 1 mps 716 mmHg 74%
    13:00 +28°C° 0.8 mm 1 mps 715 mmHg 75%
    14:00 +28°C° 0.8 mm 1 mps 715 mmHg 76%
    15:00 +28°C° 0.8 mm 1 mps 714 mmHg 77%
    16:00 +27°C° 2.3 mm 1 mps 715 mmHg 83%
    17:00 +26°C° 2.3 mm 1 mps 715 mmHg 90%
    18:00 +24°C° 2.3 mm 1 mps 715 mmHg 97%
    19:00 +24°C° 4.3 mm 1 mps 715 mmHg 97%
    20:00 +23°C° 4.3 mm 1 mps 716 mmHg 98%
    21:00 +23°C° 4.3 mm 1 mps 716 mmHg 99%
    22:00 +23°C° 3.3 mm 1 mps 716 mmHg 99%
    23:00 +23°C° 3.3 mm 1 mps 716 mmHg 99%

    29 June, Friday

    Time Temperature Precipitation Wind Pressure Humidity
    00:00 +22°C° 3.3 mm 1 mps 716 mmHg 99%
    01:00 +22°C° 2 mm 1 mps 716 mmHg 99%
    02:00 +22°C° 2 mm 1 mps 715 mmHg 99%
    03:00 +22°C° 2 mm 1 mps 715 mmHg 99%
    04:00 +22°C° 0.1 mm 1 mps 715 mmHg 99%
    05:00 +22°C° 0.1 mm 1 mps 715 mmHg 99%
    06:00 +22°C° 0.1 mm 1 mps 715 mmHg 98%
    07:00 +24°C° 0 mm 1 mps 716 mmHg 93%
    08:00 +25°C° 0 mm 1 mps 716 mmHg 88%
    09:00 +26°C° 0 mm 1 mps 716 mmHg 82%
    10:00 +28°C° 0 mm 1 mps 716 mmHg 73%
    11:00 +30°C° 0 mm 2 mps 716 mmHg 64%
    12:00 +31°C° 0 mm 2 mps 715 mmHg 54%
    13:00 +31°C° 0.1 mm 2 mps 715 mmHg 55%
    14:00 +31°C° 0.1 mm 2 mps 714 mmHg 56%
    15:00 +32°C° 0.1 mm 2 mps 714 mmHg 57%
    16:00 +30°C° 0.2 mm 2 mps 714 mmHg 62%
    17:00 +29°C° 0.2 mm 2 mps 714 mmHg 68%
    18:00 +28°C° 0.2 mm 2 mps 714 mmHg 74%
    19:00 +26°C° 0 mm 2 mps 715 mmHg 75%
    20:00 +25°C° 0 mm 2 mps 715 mmHg 76%
    21:00 +24°C° 0 mm 1 mps 716 mmHg 78%
    22:00 +23°C° 0.2 mm 1 mps 716 mmHg 79%
    23:00 +23°C° 0.2 mm 1 mps 716 mmHg 80%
    Show more